Torna al catalogo

GLOBAL-16

AttivoComunicazioniVLEO
NORAD 49950·PAYLOAD·🇺🇸 United States

Lanciato Dec 9, 2021 da Rocket Lab Launch Complex 1

Loading…

Prossimi Passaggi (prossime 24 ore)

TLE

AggiornatoSource: Space-Track

Epoca: Sep 14, 2026, 00:35 UTC

1 49950U 21120B   26257.02453702  .00028064  00000-0  42018-3 0  9996
2 49950  41.9937 243.7048 0014114 155.6587 204.4927 15.54263004268653

Traccia GLOBAL-16 in tempo reale con AllMySat

Download on the App Store